Vertical_Velocity
5 7 1 7 3 0 -0 1 -1 -10 -10 7 -6 9 6 10 3 0 -0 1 1 -4 -2 -2 1 3 1 -0 3 3 0 0 1 1 1 1 -2 -1
0 1 6 6 5 5 1 -1 -0 -8 -39 17 4 -2 3 -5 6 0 2 -2 -2 4 -3 -3 -4 -1 3 2 -1 -2 1 1 -0 2 -2 1 -2 -2
5 -1 2 -1 1 1 2 1 -1 0 -20 9 -13 5 -4 -5 1 3 4 -3 -4 -1 1 4 -1 -0 -3 2 -1 0 -3 -1 -1 3 -2 0 -1 -4
2 -0 1 4 4 -2 -4 0 -2 8 -4 -21 16 1 -2 3 -1 -3 7 2 -5 4 24 1 -1 -0 -3 1 10 3 1 2 5 5 2 3 -1 -4
-3 -1 1 -2 4 4 5 -5 -4 -2 1 -9 -8 4 -2 1 -3 -2 1 6 3 7 9 8 1 0 1 -2 4 8 13 11 3 1 2 3 -4 -4
-3 -1 -4 1 -4 -1 1 5 0 -4 4 -1 -7 -4 -4 6 -1 -1 -5 0 -3 55 6 2 9 1 -1 1 -0 8 -1 12 3 7 11 -2 -3 -1
-1 -2 3 5 -1 1 -3 9 2 5 3 1 -1 -1 -2 2 1 7 -5 -0 4 6 1 20 5 11 3 -0 6 5 1 8 14 -0 12 -0 3 1
1 10 3 2 1 5 1 -4 -5 -5 2 0 1 -0 3 -1 2 0 -2 -1 -15 21 7 -2 5 2 6 13 11 9 2 5 4 8 11 7 3 2
2 4 4 10 5 6 5 -0 5 3 -6 -6 -7 6 -12 7 1 3 3 -2 -6 0 -4 8 18 6 10 -2 3 7 7 8 12 11 9 1 -1 4
-3 1 -7 4 16 -4 -5 -1 4 10 7 -3 -12 -4 -3 2 -1 0 0 0 -5 3 4 -9 17 3 5 16 -2 8 7 12 17 12 4 5 1 3
-3 -1 -2 -5 6 4 -12 -8 1 17 1 2 -3 -4 2 -1 -0 -7 2 1 -4 -0 -2 1 2 1 5 9 0 10 5 5 7 6 -3 1 4 3
5 -2 3 -8 2 5 -8 -6 -4 7 3 6 6 -0 -5 3 3 -5 5 -5 -4 -1 3 31 3 3 -4 2 6 1 8 13 9 4 3 5 2 3
-6 0 5 -0 -4 -1 -4 -0 -4 1 5 0 3 2 1 -2 1 -3 -0 -2 -2 -2 4 10 4 8 2 4 15 9 3 3 -1 -2 1 4 3 2
-4 -2 1 1 -1 1 -0 -1 -2 -2 1 2 0 0 0 -3 -3 -0 3 3 5 2 0 10 4 7 10 9 8 3 5 2 3 5 5 -1 -1 2
-3 -2 -2 2 1 4 0 -1 -0 1 -0 1 -3 1 0 3 6 8 6 8 4 -2 3 10 5 0 -1 1 3 8 7 6 3 -2 1 1 2 3
2 5 -3 -1 2 2 2 2 0 -0 1 0 -2 1 2 11 11 12 17 11 8 1 8 0 2 -0 -2 1 5 6 4 1 -1 3 2 1 2 1
6 2 -0 -2 2 3 2 1 1 -0 0 -3 0 3 7 8 4 9 17 7 7 5 5 1 3 4 3 2 2 0 -2 1 1 3 1 1 -3 -5
4 1 1 1 1 1 0 -0 -1 2 -0 0 2 5 5 4 9 12 14 7 5 3 3 3 3 2 1 -1 0 2 1 1 2 -0 1 -1 -4 -2
1 1 0 1 -1 -0 1 2 9 2 0 -1 4 -3 6 4 8 6 7 5 2 -0 1 1 1 0 -1 0 2 -0 -1 -4 -2 -2 -1 1 3 -13
-1 1 -0 -1 -0 1 1 5 4 5 6 2 2 2 5 6 2 4 5 7 5 1 3 -0 -2 -2 -2 1 1 -0 -0 0 1 -0 -2 1 3 3
3 -1 -0 -0 -1 2 5 6 7 5 4 6 5 2 2 -0 5 7 4 3 4 0 -2 -0 0 1 1 -1 -3 3 13 3 -1 -3 -5 -2 -0 -1
2 -1 -1 -1 1 3 5 7 5 3 6 5 0 1 5 7 8 3 3 3 3 2 -2 0 0 -1 0 3 1 -5 -6 2 4 2 -0 -2 -0 -1
-0 -2 -2 -1 3 3 5 3 5 8 7 -2 -0 11 7 7 4 2 1 0 -2 1 1 0 2 2 -2 -1 0 -1 -4 -3 0 -1 -2 -3 -3 -3
Height
5612 5606 5600 5595 5590 5585 5580 5576 5572 5567 5568 5566 5562 5564 5562 5557 5554 5552 5548 5548 5546 5543 5541 5540 5538 5537 5538 5538 5538 5536 5534 5532 5531 5530 5530 5529 5527 5525
5588 5582 5577 5573 5568 5564 5559 5554 5549 5543 5541 5549 5548 5544 5541 5537 5540 5534 5531 5530 5530 5529 5525 5524 5523 5521 5522 5522 5523 5522 5520 5519 5518 5517 5516 5515 5514 5512
5566 5560 5556 5550 5546 5542 5537 5534 5530 5524 5516 5528 5523 5523 5520 5518 5518 5517 5515 5512 5511 5509 5506 5505 5507 5507 5506 5505 5505 5506 5505 5505 5504 5505 5502 5501 5500 5497
5543 5538 5536 5529 5524 5519 5513 5510 5507 5504 5494 5494 5504 5501 5498 5498 5497 5496 5497 5494 5493 5493 5488 5487 5489 5490 5491 5490 5490 5490 5490 5491 5492 5491 5489 5488 5486 5483
5520 5515 5511 5503 5499 5495 5491 5487 5484 5480 5476 5470 5475 5479 5478 5478 5476 5476 5476 5475 5474 5472 5472 5472 5472 5473 5474 5475 5473 5476 5474 5475 5477 5476 5475 5474 5472 5470
5496 5491 5486 5481 5476 5472 5467 5464 5461 5458 5456 5452 5450 5454 5456 5459 5455 5455 5454 5455 5455 5452 5453 5455 5456 5456 5457 5459 5459 5460 5460 5461 5462 5461 5461 5459 5458 5456
5473 5468 5463 5458 5451 5447 5442 5444 5440 5437 5436 5434 5431 5431 5436 5435 5434 5434 5432 5432 5434 5433 5435 5435 5436 5439 5441 5442 5442 5444 5446 5447 5447 5446 5447 5445 5445 5441
5453 5448 5443 5438 5432 5427 5422 5419 5419 5415 5414 5410 5412 5413 5415 5413 5412 5410 5410 5411 5413 5419 5415 5418 5417 5421 5423 5426 5428 5428 5429 5430 5431 5432 5433 5431 5430 5426
5430 5425 5422 5415 5408 5401 5400 5398 5398 5394 5388 5388 5389 5394 5391 5395 5391 5391 5389 5389 5392 5394 5396 5398 5401 5403 5406 5410 5412 5413 5413 5414 5416 5418 5418 5417 5415 5411
5403 5397 5394 5391 5383 5373 5373 5375 5375 5372 5368 5364 5363 5368 5367 5372 5369 5368 5368 5369 5370 5375 5378 5381 5385 5389 5391 5393 5394 5394 5398 5400 5402 5404 5404 5404 5400 5396
5377 5372 5364 5359 5353 5345 5343 5345 5348 5351 5346 5344 5344 5345 5346 5347 5347 5345 5349 5350 5354 5358 5362 5368 5369 5372 5375 5378 5379 5382 5384 5386 5389 5390 5390 5388 5385 5380
5351 5344 5338 5330 5327 5322 5318 5318 5320 5324 5325 5327 5326 5325 5323 5325 5327 5328 5332 5336 5338 5344 5350 5353 5357 5359 5361 5365 5367 5370 5371 5374 5376 5377 5375 5373 5369 5364
5326 5320 5314 5308 5304 5301 5298 5298 5299 5302 5306 5306 5308 5308 5307 5309 5313 5318 5321 5324 5327 5331 5337 5340 5343 5345 5349 5353 5355 5357 5360 5362 5363 5363 5361 5358 5353 5347
5304 5299 5294 5289 5285 5284 5283 5283 5285 5286 5289 5292 5292 5294 5296 5299 5304 5308 5312 5315 5318 5322 5325 5328 5331 5334 5337 5339 5343 5346 5348 5350 5349 5348 5345 5341 5336 5332
5287 5281 5276 5274 5272 5272 5272 5273 5276 5277 5280 5281 5283 5285 5287 5292 5297 5301 5305 5308 5310 5312 5315 5318 5320 5322 5324 5329 5332 5335 5337 5337 5334 5332 5328 5324 5321 5318
5277 5271 5264 5264 5262 5262 5263 5266 5269 5271 5272 5273 5275 5277 5281 5287 5291 5294 5296 5299 5301 5304 5307 5310 5312 5315 5318 5322 5325 5325 5323 5321 5319 5315 5312 5308 5305 5304
5267 5262 5257 5254 5254 5255 5258 5262 5264 5265 5266 5267 5269 5271 5277 5281 5286 5288 5289 5292 5295 5298 5301 5304 5306 5309 5312 5313 5313 5312 5311 5307 5303 5300 5295 5293 5292 5291
5257 5253 5249 5247 5249 5252 5256 5258 5260 5261 5261 5262 5264 5267 5272 5277 5280 5284 5287 5289 5292 5295 5297 5299 5301 5303 5303 5303 5302 5299 5295 5292 5288 5285 5282 5279 5277 5277
5250 5246 5243 5243 5246 5250 5253 5256 5258 5257 5257 5258 5262 5266 5271 5274 5277 5280 5283 5286 5289 5292 5293 5295 5296 5295 5294 5292 5289 5285 5281 5277 5274 5271 5269 5266 5261 5260
5243 5241 5240 5242 5245 5248 5251 5253 5253 5252 5254 5258 5262 5266 5269 5272 5275 5276 5280 5284 5285 5286 5288 5289 5288 5287 5285 5281 5276 5272 5268 5264 5260 5255 5252 5250 5245 5240
5240 5237 5238 5241 5245 5248 5250 5251 5249 5250 5254 5257 5260 5264 5267 5271 5273 5276 5279 5281 5282 5283 5283 5282 5280 5276 5271 5266 5263 5261 5258 5251 5244 5237 5232 5227 5224 5222
5237 5235 5237 5242 5245 5248 5249 5248 5248 5251 5255 5258 5260 5264 5268 5271 5274 5276 5278 5278 5278 5277 5275 5273 5269 5265 5262 5259 5255 5248 5243 5238 5228 5220 5215 5213 5212 5210
5234 5234 5238 5242 5245 5247 5248 5247 5249 5252 5256 5260 5263 5267 5270 5272 5274 5276 5276 5276 5273 5271 5269 5266 5263 5259 5255 5247 5240 5232 5225 5219 5214 5210 5208 5206 5205 5204